| time (UTC) | temp F | wind direction | speed knots | gust knots | rain 1hr in | rain 24hr in | rain mn in | humidity % | barometer mb |
| 20260507210152 | 84 | 113 | 6.1 | 11.3 | 0.00 | 0.00 | 0.00 | 75 | 1016.2 |
| 20260507205649 | 84 | 80 | 5.2 | 11.3 | 0.00 | 0.00 | 0.00 | 76 | 1016.1 |
| 20260507205146 | 84 | 144 | 7.8 | 11.3 | 0.00 | 0.00 | 0.00 | 74 | 1016.2 |
| 20260507204642 | 84 | 126 | 6.1 | 11.3 | 0.00 | 0.00 | 0.00 | 74 | 1016.3 |
| 20260507204140 | 84 | 111 | 6.1 | 11.3 | 0.00 | 0.00 | 0.00 | 75 | 1016.1 |
| 20260507203637 | 84 | 108 | 7.8 | 11.3 | 0.00 | 0.00 | 0.00 | 73 | 1016.1 |
| 20260507203135 | 85 | 91 | 7.0 | 7.8 | 0.00 | 0.00 | 0.00 | 71 | 1016.3 |
| 20260507202630 | 84 | 109 | 4.3 | 7.0 | 0.00 | 0.00 | 0.00 | 71 | 1016.1 |
| 20260507202127 | 84 | 84 | 4.3 | 9.6 | 0.00 | 0.00 | 0.00 | 73 | 1016.3 |
| 20260507201622 | 84 | 102 | 7.8 | 12.2 | 0.00 | 0.00 | 0.00 | 74 | 1016.2 |
| 20260507201119 | 84 | 123 | 6.1 | 13.0 | 0.00 | 0.00 | 0.00 | 74 | 1016.3 |
| 20260507200615 | 84 | 112 | 1.7 | 9.6 | 0.00 | 0.00 | 0.00 | 74 | 1016.3 |
| 20260507200111 | 84 | 128 | 7.8 | 11.3 | 0.00 | 0.00 | 0.00 | 71 | 1016.3 |
| 20260507195608 | 84 | 109 | 5.2 | 11.3 | 0.00 | 0.00 | 0.00 | 72 | 1016.3 |
| 20260507195106 | 84 | 104 | 7.0 | 13.0 | 0.00 | 0.00 | 0.00 | 71 | 1016.4 |
| 20260507194602 | 84 | 123 | 7.8 | 11.3 | 0.00 | 0.00 | 0.00 | 69 | 1016.4 |
| 20260507194057 | 85 | 73 | 5.2 | 14.8 | 0.00 | 0.00 | 0.00 | 71 | 1016.5 |
| 20260507193555 | 85 | 93 | 4.3 | 13.0 | 0.00 | 0.00 | 0.00 | 72 | 1016.6 |
| 20260507193052 | 84 | 91 | 7.8 | 11.3 | 0.00 | 0.00 | 0.00 | 71 | 1016.5 |
| 20260507192548 | 85 | 85 | 7.8 | 13.9 | 0.00 | 0.00 | 0.00 | 71 | 1016.6 |
| 20260507192045 | 85 | 104 | 6.1 | 11.3 | 0.00 | 0.00 | 0.00 | 70 | 1016.7 |
| 20260507191540 | 85 | 149 | 6.1 | 9.6 | 0.00 | 0.00 | 0.00 | 71 | 1016.6 |
| 20260507191038 | 85 | 101 | 4.3 | 9.6 | 0.00 | 0.00 | 0.00 | 71 | 1016.6 |
| 20260507190535 | 85 | 142 | 5.2 | 9.6 | 0.00 | 0.00 | 0.00 | 70 | 1016.7 |
| 20260507190034 | 85 | 129 | 6.1 | 12.2 | 0.00 | 0.00 | 0.00 | 70 | 1016.7 |
| 20260507185531 | 85 | 109 | 9.6 | 11.3 | 0.00 | 0.00 | 0.00 | 71 | 1016.8 |
| 20260507185028 | 85 | 67 | 6.1 | 9.6 | 0.00 | 0.00 | 0.00 | 69 | 1016.9 |
| 20260507184526 | 85 | 146 | 4.3 | 9.6 | 0.00 | 0.00 | 0.00 | 71 | 1016.7 |
| 20260507184024 | 85 | 139 | 7.8 | 12.2 | 0.00 | 0.00 | 0.00 | 70 | 1016.9 |
| 20260507183519 | 85 | 105 | 8.7 | 13.9 | 0.00 | 0.00 | 0.00 | 72 | 1016.9 |
| 20260507183017 | 85 | 157 | 7.8 | 11.3 | 0.00 | 0.00 | 0.00 | 73 | 1016.9 |
| 20260507182513 | 85 | 104 | 5.2 | 11.3 | 0.00 | 0.00 | 0.00 | 73 | 1017.1 |
| 20260507182009 | 85 | 135 | 10.4 | 13.0 | 0.00 | 0.00 | 0.00 | 71 | 1017.0 |
| 20260507181506 | 85 | 141 | 6.1 | 8.7 | 0.00 | 0.00 | 0.00 | 69 | 1017.1 |
| 20260507181002 | 85 | 230 | 3.5 | 8.7 | 0.00 | 0.00 | 0.00 | 71 | 1017.2 |
| 20260507180458 | 85 | 88 | 7.0 | 8.7 | 0.00 | 0.00 | 0.00 | 72 | 1017.2 |
| 20260507175954 | 85 | 108 | 9.6 | 12.2 | 0.00 | 0.00 | 0.00 | 73 | 1017.4 |
| 20260507175451 | 86 | 157 | 5.2 | 11.3 | 0.00 | 0.00 | 0.00 | 72 | 1017.5 |
| 20260507174949 | 86 | 57 | 7.8 | 9.6 | 0.00 | 0.00 | 0.00 | 71 | 1017.5 |
| 20260507174446 | 85 | 74 | 6.1 | 12.2 | 0.00 | 0.00 | 0.00 | 72 | 1017.6 |
| 20260507173943 | 85 | 59 | 9.6 | 13.9 | 0.00 | 0.00 | 0.00 | 71 | 1017.5 |
| 20260507173440 | 85 | 158 | 5.2 | 13.0 | 0.00 | 0.00 | 0.00 | 73 | 1017.6 |
| 20260507172937 | 85 | 85 | 9.6 | 13.0 | 0.00 | 0.00 | 0.00 | 72 | 1017.6 |
| 20260507172434 | 85 | 113 | 3.5 | 13.0 | 0.00 | 0.00 | 0.00 | 72 | 1018.0 |
| 20260507171930 | 85 | 105 | 4.3 | 13.9 | 0.00 | 0.00 | 0.00 | 75 | 1017.8 |
| 20260507171426 | 85 | 128 | 4.3 | 8.7 | 0.00 | 0.00 | 0.00 | 74 | 1017.9 |
| 20260507170924 | 84 | 106 | 4.3 | 8.7 | 0.00 | 0.00 | 0.00 | 72 | 1018.0 |
| 20260507170420 | 85 | 78 | 4.3 | 12.2 | 0.00 | 0.00 | 0.00 | 73 | 1018.3 |
| 20260507165917 | 85 | 173 | 5.2 | 7.0 | 0.00 | 0.00 | 0.00 | 73 | 1018.1 |
| 20260507165412 | 84 | 107 | 3.5 | 7.8 | 0.00 | 0.00 | 0.00 | 73 | 1018.4 |
| 20260507164908 | 84 | 52 | 7.8 | 11.3 | 0.00 | 0.00 | 0.00 | 73 | 1018.3 |
| 20260507164406 | 84 | 83 | 7.0 | 9.6 | 0.00 | 0.00 | 0.00 | 72 | 1018.4 |
| 20260507163903 | 84 | 48 | 5.2 | 12.2 | 0.00 | 0.00 | 0.00 | 75 | 1018.6 |
| 20260507163400 | 84 | 97 | 6.1 | 8.7 | 0.00 | 0.00 | 0.00 | 77 | 1018.7 |
| 20260507162857 | 83 | 93 | 6.1 | 9.6 | 0.00 | 0.00 | 0.00 | 77 | 1018.7 |
| 20260507162352 | 83 | 92 | 7.0 | 9.6 | 0.00 | 0.00 | 0.00 | 78 | 1018.9 |
| 20260507161850 | 82 | 124 | 5.2 | 8.7 | 0.00 | 0.00 | 0.00 | 81 | 1018.8 |
| 20260507161346 | 81 | 100 | 5.2 | 8.7 | 0.00 | 0.00 | 0.00 | 83 | 1019.0 |
| 20260507160843 | 81 | 88 | 5.2 | 6.1 | 0.00 | 0.00 | 0.00 | 86 | 1018.9 |
| 20260507160338 | 80 | 91 | 4.3 | 6.1 | 0.00 | 0.00 | 0.00 | 85 | 1019.0 |
| 20260507155835 | 81 | 85 | 5.2 | 7.8 | 0.00 | 0.00 | 0.00 | 82 | 1019.2 |
| 20260507155330 | 82 | 88 | 5.2 | 8.7 | 0.00 | 0.00 | 0.00 | 79 | 1019.0 |
| 20260507154827 | 82 | 59 | 5.2 | 8.7 | 0.00 | 0.00 | 0.00 | 79 | 1019.1 |
| 20260507154325 | 82 | 102 | 4.3 | 11.3 | 0.00 | 0.00 | 0.00 | 81 | 1019.1 |
| 20260507153821 | 83 | 118 | 3.5 | 7.0 | 0.00 | 0.00 | 0.00 | 79 | 1019.1 |
| 20260507153318 | 83 | 117 | 4.3 | 8.7 | 0.00 | 0.00 | 0.00 | 79 | 1019.3 |
| 20260507152815 | 82 | 91 | 4.3 | 6.1 | 0.00 | 0.00 | 0.00 | 82 | 1019.2 |
| 20260507152311 | 82 | 147 | 4.3 | 7.8 | 0.00 | 0.00 | 0.00 | 81 | 1019.0 |
| 20260507151807 | 83 | 87 | 6.1 | 9.6 | 0.00 | 0.00 | 0.00 | 78 | 1019.1 |
| 20260507151303 | 84 | 98 | 5.2 | 7.0 | 0.00 | 0.00 | 0.00 | 77 | 1019.2 |
| 20260507150800 | 84 | 174 | 3.5 | 11.3 | 0.00 | 0.00 | 0.00 | 77 | 1019.2 |
| 20260507150257 | 84 | 148 | 5.2 | 7.8 | 0.00 | 0.00 | 0.00 | 76 | 1019.0 |
| 20260507145753 | 84 | 74 | 4.3 | 8.7 | 0.00 | 0.00 | 0.00 | 74 | 1019.3 |
| 20260507145250 | 83 | 8 | 3.5 | 8.7 | 0.00 | 0.00 | 0.00 | 76 | 1019.2 |
| 20260507144747 | 84 | 101 | 4.3 | 11.3 | 0.00 | 0.00 | 0.00 | 75 | 1019.2 |
| 20260507144244 | 84 | 124 | 5.2 | 11.3 | 0.00 | 0.00 | 0.00 | 73 | 1019.2 |
| 20260507143740 | 84 | 88 | 6.1 | 12.2 | 0.00 | 0.00 | 0.00 | 75 | 1019.2 |
| 20260507143238 | 84 | 108 | 5.2 | 11.3 | 0.00 | 0.00 | 0.00 | 74 | 1019.5 |
| 20260507142734 | 84 | 74 | 4.3 | 7.0 | 0.00 | 0.00 | 0.00 | 74 | 1019.2 |
| 20260507142230 | 83 | 51 | 3.5 | 7.0 | 0.00 | 0.00 | 0.00 | 75 | 1019.5 |
| 20260507141727 | 83 | 104 | 5.2 | 8.7 | 0.00 | 0.00 | 0.00 | 75 | 1019.2 |
| 20260507141224 | 83 | 84 | 7.8 | 12.2 | 0.00 | 0.00 | 0.00 | 75 | 1019.5 |
| 20260507140720 | 83 | 104 | 10.4 | 12.2 | 0.00 | 0.00 | 0.00 | 75 | 1019.5 |
| 20260507140218 | 83 | 82 | 7.0 | 8.7 | 0.00 | 0.00 | 0.00 | 75 | 1019.5 |
| 20260507135714 | 83 | 117 | 6.1 | 9.6 | 0.00 | 0.00 | 0.00 | 75 | 1019.2 |
| 20260507135212 | 82 | 83 | 6.1 | 8.7 | 0.00 | 0.00 | 0.00 | 79 | 1019.4 |
| 20260507134708 | 82 | 116 | 6.1 | 9.6 | 0.00 | 0.00 | 0.00 | 79 | 1019.4 |
| 20260507134204 | 82 | 76 | 6.1 | 11.3 | 0.00 | 0.00 | 0.00 | 79 | 1019.3 |
| 20260507133700 | 83 | 77 | 7.8 | 12.2 | 0.00 | 0.00 | 0.00 | 77 | 1019.1 |
| 20260507133158 | 82 | 195 | 7.8 | 12.2 | 0.00 | 0.00 | 0.00 | 78 | 1019.1 |
| 20260507132655 | 82 | 114 | 7.8 | 14.8 | 0.00 | 0.00 | 0.00 | 79 | 1019.2 |
| 20260507132151 | 81 | 107 | 3.5 | 8.7 | 0.00 | 0.00 | 0.00 | 81 | 1019.0 |
| 20260507131648 | 81 | 139 | 5.2 | 9.6 | 0.00 | 0.00 | 0.00 | 82 | 1019.0 |
| 20260507131145 | 81 | 92 | 3.5 | 13.0 | 0.00 | 0.00 | 0.00 | 82 | 1018.8 |
| 20260507130642 | 80 | 99 | 3.5 | 5.2 | 0.00 | 0.00 | 0.00 | 84 | 1019.0 |
| 20260507130140 | 80 | 156 | 3.5 | 5.2 | 0.00 | 0.00 | 0.00 | 84 | 1019.0 |
| 20260507125638 | 80 | 106 | 4.3 | 6.1 | 0.00 | 0.00 | 0.00 | 83 | 1019.1 |
| 20260507125136 | 80 | 59 | 2.6 | 8.7 | 0.00 | 0.00 | 0.00 | 83 | 1019.1 |
| 20260507124631 | 81 | 76 | 6.1 | 8.7 | 0.00 | 0.00 | 0.00 | 82 | 1019.0 |
| 20260507124129 | 81 | 245 | 5.2 | 9.6 | 0.00 | 0.00 | 0.00 | 82 | 1019.1 |
| 20260507123628 | 81 | 64 | 3.5 | 8.7 | 0.00 | 0.00 | 0.00 | 83 | 1018.9 |
| 20260507123124 | 81 | 79 | 6.1 | 8.7 | 0.00 | 0.00 | 0.00 | 85 | 1018.9 |
| 20260507122620 | 80 | 77 | 6.1 | 8.7 | 0.00 | 0.00 | 0.00 | 87 | 1018.7 |
| 20260507122115 | 79 | 76 | 2.6 | 6.1 | 0.00 | 0.00 | 0.00 | 88 | 1018.8 |
| 20260507121612 | 79 | 95 | 4.3 | 7.8 | 0.00 | 0.00 | 0.00 | 88 | 1018.7 |
| 20260507121108 | 79 | 93 | 4.3 | 6.1 | 0.00 | 0.00 | 0.00 | 87 | 1018.6 |
| 20260507120604 | 79 | 80 | 3.5 | 6.1 | 0.00 | 0.00 | 0.00 | 87 | 1018.4 |
| 20260507120101 | 79 | 92 | 2.6 | 3.5 | 0.00 | 0.00 | 0.00 | 88 | 1018.6 |
| 20260507115557 | 79 | 101 | 3.5 | 6.1 | 0.00 | 0.00 | 0.00 | 88 | 1018.6 |
| 20260507115053 | 79 | 57 | 4.3 | 8.7 | 0.00 | 0.00 | 0.00 | 88 | 1018.3 |
| 20260507114549 | 79 | 135 | 3.5 | 5.2 | 0.00 | 0.00 | 0.00 | 89 | 1018.5 |
| 20260507114047 | 79 | 84 | 3.5 | 5.2 | 0.00 | 0.00 | 0.00 | 88 | 1018.3 |
| 20260507113543 | 79 | 63 | 4.3 | 5.2 | 0.00 | 0.00 | 0.00 | 89 | 1018.4 |
| 20260507113041 | 78 | 67 | 2.6 | 5.2 | 0.00 | 0.00 | 0.00 | 90 | 1018.3 |
| 20260507112538 | 79 | 53 | 3.5 | 5.2 | 0.00 | 0.00 | 0.00 | 89 | 1018.3 |
| 20260507112035 | 79 | 61 | 1.7 | 3.5 | 0.00 | 0.00 | 0.00 | 90 | 1018.1 |
| 20260507111532 | 79 | 90 | 1.7 | 6.1 | 0.00 | 0.00 | 0.00 | 89 | 1018.0 |
| 20260507111029 | 80 | 77 | 0.9 | 2.6 | 0.00 | 0.00 | 0.00 | 91 | 1018.2 |
| 20260507110525 | 78 | 85 | 0.0 | 0.9 | 0.00 | 0.00 | 0.00 | 93 | 1018.1 |
| 20260507110022 | 78 | 59 | 0.0 | 0.9 | 0.00 | 0.00 | 0.00 | 93 | 1018.3 |
| 20260507105519 | 77 | 80 | 0.9 | 1.7 | 0.00 | 0.00 | 0.00 | 93 | 1018.0 |
| 20260507105015 | 77 | 117 | 0.9 | 0.9 | 0.00 | 0.00 | 0.00 | 94 | 1018.2 |
| 20260507104513 | 77 | 127 | 0.9 | 1.7 | 0.00 | 0.00 | 0.00 | 94 | 1018.1 |
| 20260507104008 | 77 | 84 | 0.9 | 1.7 | 0.00 | 0.00 | 0.00 | 94 | 1017.9 |
| 20260507103505 | 77 | 123 | 0.9 | 1.7 | 0.00 | 0.00 | 0.00 | 94 | 1018.0 |
| 20260507103001 | 76 | 85 | 0.9 | 0.9 | 0.00 | 0.00 | 0.00 | 95 | 1018.0 |
| 20260507102458 | 76 | 88 | 0.9 | 1.7 | 0.00 | 0.00 | 0.00 | 95 | 1018.2 |
| 20260507101954 | 76 | 195 | 0.9 | 1.7 | 0.00 | 0.00 | 0.00 | 95 | 1018.0 |
| 20260507101449 | 75 | 114 | 0.0 | 0.0 | 0.00 | 0.00 | 0.00 | 95 | 1017.8 |
| 20260507100946 | 75 | 190 | 0.0 | 1.7 | 0.00 | 0.00 | 0.00 | 95 | 1017.6 |
| 20260507100443 | 75 | 216 | 0.0 | 0.9 | 0.00 | 0.00 | 0.00 | 95 | 1017.7 |
| 20260507095942 | 75 | 228 | 0.9 | 1.7 | 0.00 | 0.00 | 0.00 | 95 | 1017.8 |
| 20260507095439 | 75 | 245 | 0.0 | 0.0 | 0.00 | 0.00 | 0.00 | 95 | 1017.7 |
| 20260507094936 | 75 | 261 | 0.0 | 0.0 | 0.00 | 0.00 | 0.00 | 95 | 1017.9 |
| 20260507094432 | 75 | 254 | 0.0 | 0.0 | 0.00 | 0.00 | 0.00 | 95 | 1017.9 |
| 20260507093929 | 75 | 231 | 0.9 | 1.7 | 0.00 | 0.00 | 0.00 | 94 | 1017.9 |
| 20260507093427 | 75 | 112 | 0.0 | 0.0 | 0.00 | 0.00 | 0.00 | 94 | 1017.8 |
| 20260507092925 | 75 | 112 | 0.0 | 0.9 | 0.00 | 0.00 | 0.00 | 94 | 1017.7 |
| 20260507092421 | 75 | 111 | 0.0 | 0.0 | 0.00 | 0.00 | 0.00 | 94 | 1017.7 |
| 20260507091918 | 75 | 113 | 0.0 | 0.0 | 0.00 | 0.00 | 0.00 | 94 | 1017.8 |
| 20260507091414 | 75 | 113 | 0.0 | 0.9 | 0.00 | 0.00 | 0.00 | 94 | 1017.9 |
| 20260507090910 | 75 | 112 | 0.0 | 0.0 | 0.00 | 0.00 | 0.00 | 94 | 1017.8 |
| 20260507090407 | 75 | 114 | 0.0 | 0.9 | 0.00 | 0.00 | 0.00 | 93 | 1017.8 |
| 20260507085903 | 75 | 116 | 0.0 | 0.0 | 0.00 | 0.00 | 0.00 | 94 | 1017.9 |
| 20260507085400 | 75 | 116 | 0.0 | 0.9 | 0.00 | 0.00 | 0.00 | 93 | 1017.9 |
| 20260507084857 | 75 | 115 | 0.0 | 0.0 | 0.00 | 0.00 | 0.00 | 93 | 1017.9 |
| 20260507084354 | 75 | 115 | 0.0 | 0.0 | 0.00 | 0.00 | 0.00 | 93 | 1017.8 |
| 20260507083851 | 76 | 116 | 0.0 | 0.0 | 0.00 | 0.00 | 0.00 | 93 | 1017.7 |
| 20260507083347 | 76 | 115 | 0.0 | 0.0 | 0.00 | 0.00 | 0.00 | 93 | 1017.7 |
| 20260507082844 | 76 | 126 | 0.0 | 0.0 | 0.00 | 0.00 | 0.00 | 92 | 1017.6 |
| 20260507082339 | 77 | 131 | 0.0 | 0.9 | 0.00 | 0.00 | 0.00 | 93 | 1017.6 |
| 20260507081837 | 77 | 162 | 1.7 | 1.7 | 0.00 | 0.00 | 0.00 | 93 | 1017.4 |
| 20260507081332 | 76 | 112 | 0.9 | 1.7 | 0.00 | 0.00 | 0.00 | 93 | 1017.6 |
| 20260507080830 | 76 | 110 | 0.0 | 0.9 | 0.00 | 0.00 | 0.00 | 93 | 1017.7 |
| 20260507080326 | 76 | 96 | 0.0 | 0.0 | 0.00 | 0.00 | 0.00 | 93 | 1017.6 |
| 20260507075821 | 77 | 46 | 0.9 | 1.7 | 0.00 | 0.00 | 0.00 | 92 | 1017.6 |
| 20260507075317 | 77 | 115 | 1.7 | 1.7 | 0.00 | 0.00 | 0.00 | 92 | 1017.5 |
| 20260507074814 | 77 | 96 | 0.9 | 1.7 | 0.00 | 0.00 | 0.00 | 92 | 1017.6 |
| 20260507074312 | 77 | 97 | 0.0 | 1.7 | 0.00 | 0.00 | 0.00 | 92 | 1017.6 |
| 20260507073809 | 77 | 143 | 0.9 | 1.7 | 0.00 | 0.00 | 0.00 | 92 | 1017.5 |
| 20260507073306 | 77 | 111 | 0.9 | 2.6 | 0.00 | 0.00 | 0.00 | 92 | 1017.8 |
| 20260507072803 | 77 | 69 | 1.7 | 2.6 | 0.00 | 0.00 | 0.00 | 92 | 1017.6 |
| 20260507072300 | 77 | 133 | 1.7 | 2.6 | 0.00 | 0.00 | 0.00 | 92 | 1017.9 |
| 20260507071757 | 77 | 89 | 0.9 | 0.9 | 0.00 | 0.00 | 0.00 | 92 | 1017.7 |
| 20260507071254 | 77 | 70 | 0.9 | 1.7 | 0.00 | 0.00 | 0.00 | 92 | 1017.8 |
| 20260507070751 | 77 | 50 | 1.7 | 2.6 | 0.00 | 0.00 | 0.00 | 92 | 1017.8 |
| 20260507070247 | 77 | 78 | 0.0 | 2.6 | 0.00 | 0.00 | 0.00 | 92 | 1018.0 |
| 20260507065744 | 77 | 50 | 0.9 | 1.7 | 0.00 | 0.00 | 0.00 | 92 | 1017.9 |
| 20260507065241 | 77 | 53 | 0.9 | 0.9 | 0.00 | 0.00 | 0.00 | 92 | 1017.8 |
| 20260507064738 | 77 | 66 | 0.0 | 2.6 | 0.00 | 0.00 | 0.00 | 92 | 1018.1 |
| 20260507064237 | 77 | 139 | 1.7 | 2.6 | 0.00 | 0.00 | 0.00 | 92 | 1018.0 |
| 20260507063734 | 77 | 155 | 0.9 | 3.5 | 0.00 | 0.00 | 0.00 | 92 | 1018.0 |
| 20260507063231 | 77 | 118 | 2.6 | 2.6 | 0.00 | 0.00 | 0.00 | 91 | 1018.3 |
| 20260507062728 | 77 | 167 | 1.7 | 2.6 | 0.00 | 0.00 | 0.00 | 91 | 1018.1 |
| 20260507062225 | 77 | 107 | 1.7 | 5.2 | 0.00 | 0.00 | 0.00 | 92 | 1018.2 |
| 20260507061723 | 77 | 84 | 4.3 | 5.2 | 0.00 | 0.00 | 0.00 | 92 | 1018.2 |
| 20260507061221 | 77 | 193 | 1.7 | 2.6 | 0.00 | 0.00 | 0.00 | 92 | 1018.3 |
| 20260507060719 | 77 | 89 | 0.9 | 1.7 | 0.00 | 0.00 | 0.00 | 92 | 1018.4 |
| 20260507060215 | 77 | 137 | 0.0 | 2.6 | 0.00 | 0.00 | 0.00 | 93 | 1018.4 |
| 20260507055711 | 77 | 80 | 1.7 | 1.7 | 0.00 | 0.00 | 0.00 | 93 | 1018.4 |
| 20260507055207 | 77 | 183 | 0.0 | 0.0 | 0.00 | 0.00 | 0.00 | 92 | 1018.5 |
| 20260507054703 | 77 | 188 | 0.0 | 1.7 | 0.00 | 0.00 | 0.00 | 93 | 1018.6 |
| 20260507054200 | 77 | 84 | 0.9 | 1.7 | 0.00 | 0.00 | 0.00 | 93 | 1018.4 |
| 20260507053658 | 77 | 78 | 0.9 | 2.6 | 0.00 | 0.00 | 0.00 | 93 | 1018.6 |
| 20260507053155 | 77 | 95 | 0.9 | 2.6 | 0.00 | 0.00 | 0.00 | 94 | 1018.6 |
| 20260507052654 | 77 | 149 | 1.7 | 1.7 | 0.00 | 0.00 | 0.00 | 94 | 1018.9 |
| 20260507052150 | 77 | 296 | 0.0 | 0.0 | 0.00 | 0.00 | 0.00 | 94 | 1018.9 |
| 20260507051647 | 77 | 296 | 0.0 | 0.0 | 0.00 | 0.00 | 0.00 | 94 | 1018.9 |
| 20260507051144 | 77 | 296 | 0.0 | 0.0 | 0.00 | 0.00 | 0.00 | 94 | 1019.0 |
| 20260507050641 | 77 | 296 | 0.0 | 0.0 | 0.00 | 0.00 | 0.00 | 94 | 1019.4 |
| 20260507050138 | 77 | 295 | 0.0 | 0.0 | 0.00 | 0.00 | 0.00 | 94 | 1019.2 |
| 20260507045635 | 77 | 296 | 0.0 | 0.0 | 0.00 | 0.00 | 0.00 | 93 | 1019.6 |
| 20260507045131 | 77 | 273 | 0.0 | 0.9 | 0.00 | 0.00 | 0.00 | 93 | 1019.5 |
| 20260507044628 | 77 | 259 | 0.9 | 1.7 | 0.00 | 0.00 | 0.00 | 93 | 1019.6 |
| 20260507044125 | 77 | 257 | 0.9 | 1.7 | 0.00 | 0.00 | 0.00 | 93 | 1019.6 |
| 20260507043621 | 77 | 243 | 1.7 | 1.7 | 0.00 | 0.00 | 0.00 | 92 | 1019.7 |
| 20260507043118 | 77 | 234 | 0.0 | 1.7 | 0.00 | 0.00 | 0.00 | 93 | 1019.7 |
| 20260507042614 | 77 | 231 | 1.7 | 1.7 | 0.00 | 0.00 | 0.00 | 92 | 1019.8 |
| 20260507042110 | 77 | 206 | 0.9 | 1.7 | 0.00 | 0.00 | 0.00 | 92 | 1019.9 |
| 20260507041607 | 77 | 168 | 0.0 | 0.9 | 0.00 | 0.00 | 0.00 | 91 | 1020.0 |
| 20260507041104 | 77 | 167 | 0.0 | 0.0 | 0.00 | 0.00 | 0.00 | 91 | 1019.8 |
| 20260507040600 | 78 | 167 | 0.0 | 0.9 | 0.00 | 0.00 | 0.00 | 91 | 1020.0 |
| 20260507040057 | 78 | 135 | 0.0 | 0.9 | 0.00 | 0.10 | 0.10 | 91 | 1019.9 |
| 20260507035552 | 78 | 139 | 0.9 | 0.9 | 0.00 | 0.10 | 0.10 | 91 | 1020.1 |
| 20260507035049 | 77 | 119 | 0.0 | 0.9 | 0.00 | 0.10 | 0.10 | 91 | 1020.0 |
| 20260507034546 | 77 | 84 | 0.0 | 0.0 | 0.00 | 0.10 | 0.10 | 91 | 1020.1 |
| 20260507034044 | 78 | 65 | 0.9 | 1.7 | 0.00 | 0.10 | 0.10 | 92 | 1020.0 |
| 20260507033542 | 77 | 90 | 1.7 | 1.7 | 0.00 | 0.10 | 0.10 | 92 | 1020.2 |
| 20260507033039 | 77 | 84 | 0.9 | 1.7 | 0.00 | 0.10 | 0.10 | 92 | 1020.1 |
| 20260507032535 | 78 | 62 | 1.7 | 2.6 | 0.00 | 0.10 | 0.10 | 92 | 1020.1 |
| 20260507032032 | 78 | 157 | 0.0 | 1.7 | 0.00 | 0.10 | 0.10 | 92 | 1020.0 |
| 20260507031528 | 78 | 189 | 0.9 | 1.7 | 0.00 | 0.10 | 0.10 | 93 | 1020.2 |
| 20260507031026 | 78 | 100 | 0.9 | 2.6 | 0.00 | 0.10 | 0.10 | 93 | 1020.2 |
| 20260507030522 | 78 | 72 | 1.7 | 3.5 | 0.00 | 0.10 | 0.10 | 93 | 1020.0 |
| 20260507030020 | 78 | 86 | 1.7 | 3.5 | 0.00 | 0.10 | 0.10 | 93 | 1020.1 |
| 20260507025516 | 78 | 104 | 2.6 | 3.5 | 0.19 | 0.10 | 0.10 | 94 | 1020.2 |
| 20260507025014 | 78 | 79 | 1.7 | 2.6 | 0.19 | 0.10 | 0.10 | 94 | 1020.1 |
| 20260507024512 | 77 | 344 | 0.0 | 0.0 | 0.00 | 0.07 | 0.07 | 93 | 1020.2 |
| 20260507024008 | 77 | 20 | 0.0 | 0.0 | 0.00 | 0.07 | 0.07 | 93 | 1020.1 |
| 20260507023504 | 77 | 5 | 0.0 | 0.0 | 0.00 | 0.07 | 0.07 | 93 | 1020.2 |
| 20260507023002 | 77 | 214 | 0.9 | 0.9 | 0.00 | 0.07 | 0.07 | 93 | 1020.1 |
| 20260507022459 | 77 | 218 | 1.7 | 1.7 | 0.00 | 0.07 | 0.07 | 93 | 1020.0 |
| 20260507021954 | 77 | 230 | 0.9 | 2.6 | 0.00 | 0.07 | 0.07 | 93 | 1020.1 |
| 20260507021450 | 77 | 231 | 1.7 | 2.6 | 0.00 | 0.07 | 0.07 | 93 | 1020.2 |
| 20260507020947 | 77 | 204 | 0.9 | 1.7 | 0.00 | 0.07 | 0.07 | 93 | 1020.0 |
| 20260507020444 | 77 | 244 | 0.9 | 1.7 | 0.00 | 0.07 | 0.07 | 93 | 1020.1 |
| 20260507015941 | 77 | 250 | 1.7 | 2.6 | 0.00 | 0.07 | 0.07 | 92 | 1020.1 |
| 20260507015439 | 77 | 277 | 0.0 | 1.7 | 0.00 | 0.07 | 0.07 | 93 | 1020.0 |
| 20260507014936 | 77 | 289 | 0.0 | 0.9 | 0.00 | 0.07 | 0.07 | 93 | 1019.9 |
| 20260507014433 | 77 | 318 | 0.9 | 0.9 | 0.00 | 0.07 | 0.07 | 92 | 1019.9 |
| 20260507013929 | 77 | 309 | 0.9 | 1.7 | 0.00 | 0.07 | 0.07 | 91 | 1019.9 |
| 20260507013426 | 77 | 248 | 0.9 | 1.7 | 0.05 | 0.07 | 0.07 | 91 | 1019.8 |
| 20260507012923 | 78 | 256 | 0.0 | 1.7 | 0.28 | 0.07 | 0.07 | 91 | 1019.8 |
| 20260507012420 | 78 | 249 | 0.9 | 1.7 | 0.24 | 0.06 | 0.06 | 90 | 1019.8 |
| 20260507011917 | 77 | 288 | 0.0 | 0.9 | 0.00 | 0.02 | 0.02 | 89 | 1019.8 |
| 20260507011414 | 77 | 333 | 0.9 | 0.9 | 0.00 | 0.02 | 0.02 | 89 | 1019.9 |
| 20260507010913 | 77 | 290 | 0.0 | 1.7 | 0.00 | 0.02 | 0.02 | 89 | 1019.8 |
| 20260507010409 | 77 | 279 | 0.0 | 1.7 | 0.00 | 0.02 | 0.02 | 88 | 1019.6 |
| 20260507005906 | 77 | 284 | 1.7 | 1.7 | 0.00 | 0.02 | 0.02 | 88 | 1019.6 |
| 20260507005403 | 78 | 288 | 0.9 | 1.7 | 0.00 | 0.02 | 0.02 | 86 | 1019.4 |
| 20260507004900 | 79 | 305 | 0.0 | 0.9 | 0.00 | 0.02 | 0.02 | 84 | 1019.4 |
| 20260507004357 | 81 | 300 | 0.0 | 1.7 | 0.00 | 0.02 | 0.02 | 81 | 1019.4 |
| 20260507003854 | 81 | 187 | 0.0 | 0.0 | 0.00 | 0.02 | 0.02 | 80 | 1019.3 |
| 20260507003349 | 82 | 85 | 0.9 | 1.7 | 0.00 | 0.02 | 0.02 | 80 | 1019.4 |
| 20260507002845 | 82 | 107 | 0.0 | 1.7 | 0.00 | 0.02 | 0.02 | 80 | 1019.2 |
| 20260507002341 | 81 | 137 | 1.7 | 2.6 | 0.00 | 0.02 | 0.02 | 80 | 1019.2 |
| 20260507001838 | 82 | 119 | 0.9 | 2.6 | 0.00 | 0.02 | 0.02 | 80 | 1019.0 |
| 20260507001335 | 82 | 142 | 1.7 | 1.7 | 0.00 | 0.02 | 0.02 | 80 | 1019.0 |
| 20260507000831 | 82 | 154 | 0.9 | 1.7 | 0.00 | 0.02 | 0.02 | 80 | 1019.2 |
| 20260507000328 | 82 | 117 | 0.9 | 1.7 | 0.00 | 0.02 | 0.02 | 80 | 1019.1 |
| 20260506235824 | 82 | 101 | 0.9 | 1.7 | 0.00 | 0.02 | 0.02 | 80 | 1018.9 |
| 20260506235320 | 82 | 99 | 0.9 | 2.6 | 0.00 | 0.02 | 0.02 | 80 | 1019.1 |
| 20260506234816 | 82 | 116 | 1.7 | 1.7 | 0.00 | 0.02 | 0.02 | 81 | 1018.8 |
| 20260506234314 | 82 | 205 | 0.9 | 2.6 | 0.00 | 0.02 | 0.02 | 80 | 1018.9 |
| 20260506233812 | 82 | 104 | 0.9 | 1.7 | 0.00 | 0.02 | 0.02 | 80 | 1018.7 |
| 20260506233307 | 82 | 186 | 0.0 | 2.6 | 0.00 | 0.02 | 0.02 | 80 | 1018.7 |
| 20260506232804 | 82 | 135 | 1.7 | 2.6 | 0.00 | 0.02 | 0.02 | 80 | 1018.7 |
| 20260506232300 | 82 | 126 | 2.6 | 3.5 | 0.00 | 0.02 | 0.02 | 79 | 1018.5 |
| 20260506231757 | 83 | 115 | 1.7 | 3.5 | 0.00 | 0.02 | 0.02 | 79 | 1018.4 |
| 20260506231255 | 82 | 132 | 1.7 | 3.5 | 0.00 | 0.02 | 0.02 | 80 | 1018.4 |
| 20260506230752 | 82 | 103 | 2.6 | 3.5 | 0.00 | 0.02 | 0.02 | 80 | 1018.4 |
| 20260506230249 | 82 | 130 | 2.6 | 2.6 | 0.00 | 0.02 | 0.02 | 80 | 1018.4 |
| 20260506225745 | 82 | 156 | 1.7 | 3.5 | 0.00 | 0.02 | 0.02 | 79 | 1018.4 |
| 20260506225242 | 82 | 131 | 2.6 | 3.5 | 0.00 | 0.02 | 0.02 | 79 | 1018.3 |
| 20260506224738 | 83 | 222 | 4.3 | 5.2 | 0.00 | 0.02 | 0.02 | 79 | 1018.3 |
| 20260506224236 | 83 | 114 | 1.7 | 3.5 | 0.00 | 0.02 | 0.02 | 79 | 1018.1 |
| 20260506223732 | 82 | 106 | 4.3 | 7.0 | 0.00 | 0.02 | 0.02 | 78 | 1018.2 |
| 20260506223228 | 83 | 105 | 5.2 | 7.0 | 0.00 | 0.02 | 0.02 | 77 | 1017.9 |
| 20260506222725 | 83 | 116 | 3.5 | 6.1 | 0.00 | 0.02 | 0.02 | 77 | 1017.8 |
| 20260506222220 | 83 | 139 | 6.1 | 7.8 | 0.00 | 0.02 | 0.02 | 76 | 1017.6 |
| 20260506221719 | 83 | 177 | 7.0 | 7.8 | 0.00 | 0.02 | 0.02 | 76 | 1017.8 |
| 20260506221217 | 84 | 125 | 6.1 | 11.3 | 0.00 | 0.02 | 0.02 | 76 | 1017.9 |
| 20260506220714 | 85 | 82 | 4.3 | 8.7 | 0.00 | 0.02 | 0.02 | 74 | 1017.7 |
| 20260506220208 | 84 | 122 | 2.6 | 5.2 | 0.00 | 0.02 | 0.02 | 74 | 1017.7 |
| 20260506215705 | 83 | 177 | 3.5 | 7.0 | 0.00 | 0.02 | 0.02 | 75 | 1017.6 |
| 20260506215200 | 83 | 153 | 3.5 | 6.1 | 0.00 | 0.02 | 0.02 | 74 | 1017.5 |
| 20260506214658 | 83 | 121 | 5.2 | 7.8 | 0.00 | 0.02 | 0.02 | 73 | 1017.9 |
| 20260506214155 | 83 | 189 | 4.3 | 6.1 | 0.00 | 0.02 | 0.02 | 75 | 1017.7 |
| 20260506213653 | 83 | 114 | 6.1 | 7.8 | 0.00 | 0.02 | 0.02 | 75 | 1017.9 |
| 20260506213150 | 84 | 104 | 3.5 | 7.8 | 0.00 | 0.02 | 0.02 | 75 | 1017.5 |
| 20260506212647 | 83 | 92 | 7.0 | 9.6 | 0.00 | 0.02 | 0.02 | 77 | 1017.7 |
| 20260506212142 | 83 | 101 | 6.1 | 8.7 | 0.00 | 0.02 | 0.02 | 76 | 1017.6 |
| 20260506211638 | 84 | 143 | 7.0 | 9.6 | 0.00 | 0.02 | 0.02 | 75 | 1017.5 |
| 20260506211135 | 84 | 117 | 3.5 | 11.3 | 0.00 | 0.02 | 0.02 | 75 | 1017.6 |
| 20260506210632 | 84 | 165 | 6.1 | 8.7 | 0.00 | 0.02 | 0.02 | 73 | 1017.4 |